Location: Skalnate Pleso
(49.1889°N, 20.2450°E)
Time: 10:48:33
(UTC+01:00)

Cosmos 1980 Rocket - Pass Details

Date: 19 November 2019
Orbit: 827 x 851 km, 71.0° (Epoch: 06 December)

Event Time Altitude Azimuth Distance (km) Brightness Sun altitude
Exits shadow 03:51:56 12° 176° (S) 2,321 4.5 -29.5°
Drops below altitude 10° 03:52:20 10° 175° (S) 2,465 4.6 -29.5°
Sets 03:54:49 0° 171° (S) 3,393 5.4 -29.1°
